"Time","Temp","Dewpoint","Humidity","Pressure","Direction","Speed","Gust","Precip","PrecipRate"
"00:04:58","66.4","54.7","66","29.61","183","7.5","18","0.00","0.00"
"00:09:59","66.5","54.8","66","29.61","189","11.3","19.6","0.00","0.00"
"00:14:58","66.6","54.9","66","29.61","191","8.2","16.1","0.00","0.00"
"00:19:56","66.6","54.9","66","29.59","197","9.2","19.6","0.00","0.00"
"00:24:58","66.5","55","66.4","29.59","198","9.3","18.4","0.00","0.00"
"00:29:59","66.5","55.2","67","29.59","181","8.1","18","0.00","0.00"
"00:34:57","66.5","55.2","67","29.57","185","7.1","18.4","0.00","0.00"
"00:39:56","66.4","55.3","67.6","29.57","175","8.2","18","0.00","0.00"
"00:44:57","66.4","55.6","68.3","29.57","193","10","18.4","0.00","0.00"
"00:49:56","66.3","55.8","69.1","29.56","193","8.9","16.1","0.00","0.00"
"00:54:58","66","55.9","70","29.56","183","7.9","22","0.00","0.00"
"00:59:56","65.7","56","70.9","29.56","189","10.2","18.4","0.00","0.00"
"01:04:57","65.5","56","71.5","29.54","190","8.3","18.4","0.00","0.00"
"01:09:59","65.4","56.2","72.3","29.54","189","7.6","21","0.00","0.00"
"01:14:57","65.3","56.4","73","29.54","192","10.7","24.2","0.00","0.00"
"01:19:59","65.2","56.6","73.8","29.54","187","8","18.4","0.00","0.00"
"01:24:56","65","56.5","74","29.54","189","7.7","17.3","0.00","0.00"
"01:29:58","64.9","56.8","75.2","29.54","193","8.1","15","0.00","0.00"
"01:34:56","64.7","57","76","29.53","192","8.8","18.4","0.00","0.00"
"01:39:58","64.5","57","76.9","29.53","190","9.2","18","0.00","0.00"
"01:44:56","64.3","57.3","78","29.53","193","9.1","19.6","0.00","0.00"
"01:49:58","64","57.4","78.9","29.52","187","7.5","16","0.00","0.00"
"01:54:56","63.9","57.6","80","29.52","207","10.6","18.4","0.00","0.00"
"01:59:58","63.8","57.9","80.9","29.52","203","9","20","0.00","0.00"
"02:04:59","63.7","57.9","81.4","29.52","195","8","20","0.00","0.00"
"02:09:57","63.6","58.2","82.7","29.52","201","11.6","20","0.00","0.00"
"02:14:59","63.5","58.2","83","29.52","199","9.3","24.2","0.00","0.00"
"02:19:57","63.4","58.5","84","29.50","203","9.9","25","0.00","0.00"
"02:24:59","63.2","58.5","84.6","29.50","195","8","16.1","0.00","0.00"
"02:29:57","63.1","58.5","85","29.50","197","5.7","16.1","0.00","0.00"
"02:34:59","63.1","58.5","85","29.48","199","6.1","13","0.00","0.00"
"02:39:57","63","58.6","85.7","29.48","204","6.2","15","0.00","0.00"
"02:44:59","63","58.7","86","29.48","198","7.5","13","0.00","0.00"
"02:49:57","63","58.7","86","29.48","211","7.2","18.4","0.00","0.00"
"02:54:59","63","58.8","86.3","29.48","201","7.5","16.1","0.00","0.00"
"02:59:57","63.1","59.2","87","29.48","201","8.9","18.4","0.00","0.00"
"03:04:59","63.2","59.3","87","29.48","199","8.1","17","0.00","0.00"
"03:09:56","63.4","59.5","87","29.48","208","9.2","17.3","0.00","0.00"
"03:14:59","63.5","59.6","87","29.48","195","10.3","17.3","0.00","0.00"
"03:19:57","63.6","59.7","87","29.47","193","11.8","23","0.00","0.00"
"03:24:56","63.7","59.8","87","29.47","203","12.1","19.6","0.00","0.00"
"03:29:58","63.8","59.9","87","29.47","201","12.2","26.5","0.00","0.00"
"03:34:56","64","59.9","86.6","29.45","204","9.8","21.9","0.00","0.00"
"03:39:58","64","59.8","86.3","29.45","200","9.5","17","0.00","0.00"
"03:44:56","63.9","60","87","29.45","205","10","18","0.00","0.00"
"03:49:58","63.8","59.9","87","29.45","188","8.9","19.6","0.00","0.00"
"03:54:57","63.8","59.9","87","29.45","210","7.1","15","0.00","0.00"
"03:59:59","63.6","59.7","87","29.46","212","7","15","0.00","0.00"
"04:04:59","63.6","59.7","87","29.46","207","8.4","19","0.00","0.00"
"04:09:57","63.8","59.9","87","29.46","213","9.6","19.6","0.00","0.00"
"04:14:56","63.9","59.9","86.8","29.47","215","7.5","16.1","0.00","0.00"
"04:19:58","63.9","60","86.8","29.47","208","10.8","20","0.00","0.00"
"04:24:56","64","59.9","86.5","29.47","201","12","24.2","0.00","0.00"
"04:29:58","64.1","59.8","86","29.48","221","8","17.3","0.00","0.00"
"04:34:56","63.9","59.7","86.3","29.48","212","7.9","15","0.00","0.00"
"04:39:59","63.9","59.8","86.4","29.48","219","9.7","18.4","0.00","0.00"
"04:44:56","64.1","59.8","86","29.49","223","9.8","19.6","0.00","0.00"
"04:49:59","64.2","59.9","85.9","29.49","241","9.1","18.4","0.00","0.00"
"04:54:57","64.4","58.5","81.3","29.49","274","6.3","15","0.00","0.00"
"04:59:59","64.2","57.7","79.3","29.54","282","4.3","10.4","0.00","0.00"
"05:04:56","63.6","56.7","78.1","29.54","254","4.8","12","0.00","0.00"
"05:09:58","62.3","55.6","78.6","29.54","273","4.9","16.1","0.03","0.02"
"05:14:56","60.8","55.2","81.6","29.56","269","3.9","11.5","0.04","0.04"
"05:19:58","59.7","54.5","82.9","29.56","257","3.3","6.9","0.04","0.04"
"05:24:56","59.2","54.2","83.6","29.56","291","3.5","13","0.04","0.04"
"05:29:58","58.9","53.9","83.4","29.56","292","3.8","9.2","0.04","0.04"
"05:34:56","58.8","52.5","79.8","29.56","312","7.7","22","0.04","0.04"
"05:39:58","59","49.7","71.1","29.56","292","9.6","23","0.05","0.05"
"05:44:56","59","48.3","67.6","29.59","300","10.2","25.3","0.05","0.05"
"05:49:58","58.8","47.7","66.5","29.59","279","8.7","18.4","0.05","0.05"
"05:54:55","58.5","47.4","66.5","29.59","314","7.5","20","0.05","0.05"
"05:59:57","57.9","45.7","63.8","29.62","306","12.2","29","0.05","0.05"
"06:04:59","57.1","44.8","63.6","29.62","297","7.7","16.1","0.05","0.05"
"06:09:58","56.2","43.2","61.6","29.62","266","9","18","0.05","0.05"
"06:14:56","55.4","41.6","59.7","29.64","296","10.7","23","0.05","0.02"
"06:19:58","55","41.4","60.1","29.64","303","7.6","19.6","0.05","0.01"
"06:24:57","54.5","41.8","62.2","29.64","317","8.8","19.6","0.05","0.01"
"06:29:58","53.9","41.4","62.6","29.67","322","9.6","21","0.05","0.01"
"06:34:57","53.2","41","63.3","29.67","309","8.5","18.4","0.05","0.01"
"06:39:56","52.5","40.5","63.5","29.67","304","6.4","16.1","0.05","0.01"
"06:44:58","51.9","40","63.9","29.70","316","5.7","14","0.05","0.00"
"06:49:56","51.3","38.8","62.4","29.70","327","9.1","20","0.05","0.00"
"06:54:59","50.7","38.3","62.3","29.70","313","6.7","20","0.05","0.00"
"06:59:57","50","37.4","61.8","29.73","317","9.3","18.4","0.05","0.00"
"07:04:58","49.5","37","62","29.73","314","9.6","21","0.05","0.00"
"07:09:56","49.1","36.6","62.2","29.73","322","10.4","26.5","0.05","0.00"
"07:14:59","48.5","36.6","63.2","29.77","340","10.8","27","0.05","0.00"
"07:19:57","48","36.8","65.2","29.77","321","8.8","17.3","0.05","0.00"
"07:24:56","47.3","36.2","65.3","29.77","329","11.1","27","0.05","0.00"
"07:29:58","46.6","35.8","65.8","29.79","328","11.1","26.5","0.05","0.00"
"07:34:59","46.2","35.3","65.6","29.79","330","11.2","21.9","0.05","0.00"
"07:39:57","45.9","35","65.6","29.79","322","9.2","20","0.05","0.00"
"07:44:59","45.6","34.5","64.9","29.82","321","11.1","22","0.05","0.00"
"07:49:57","45.3","34.3","65.2","29.82","312","9.6","20","0.05","0.00"
"07:54:59","45","33.7","64.3","29.82","327","11.9","20","0.05","0.00"
"07:59:56","44.7","33.3","64.2","29.83","314","10.1","19.6","0.05","0.00"
"08:04:57","44.4","33.1","64.2","29.83","328","9.3","25.3","0.05","0.00"
"08:09:59","44.1","32.6","63.7","29.83","328","8.2","20","0.05","0.00"
"08:14:57","43.6","32.1","63.6","29.86","326","6.8","19.6","0.05","0.00"
"08:19:59","43.3","31.8","63.8","29.86","338","6.5","19.6","0.05","0.00"
"08:24:57","43","31.3","63","29.86","331","8.1","18.4","0.05","0.00"
"08:29:59","42.8","31.3","63.7","29.89","346","4.6","11.5","0.05","0.00"
"08:34:56","42.6","31.3","64","29.89","338","6.3","14","0.05","0.00"
"08:39:59","42.4","30.7","62.9","29.89","317","8.8","17.3","0.05","0.00"
"08:44:56","42.3","30.5","62.8","29.91","339","6.9","18.4","0.05","0.00"
"08:49:58","42.1","30.1","62.2","29.91","328","7.7","19","0.05","0.00"
"08:54:56","41.9","29.8","62.1","29.91","331","10.6","19.6","0.05","0.00"
"08:59:58","41.5","29.4","62","29.91","324","11.4","20","0.05","0.00"
"09:04:59","41.2","29.2","62","29.91","328","12","25.3","0.05","0.00"
"09:09:57","41.1","29.1","62.1","29.91","310","9","22","0.05","0.00"
"09:14:56","41.3","29","61.2","29.92","323","10","26","0.05","0.00"
"09:19:57","41.7","29","60.6","29.92","312","10.4","25.3","0.05","0.00"
"09:24:59","42","29.6","61.3","29.92","320","8.5","19.6","0.05","0.00"
"09:29:57","41.8","29.1","60.6","29.94","336","9.6","22","0.05","0.00"
"09:34:58","41.4","28.8","60.7","29.94","321","10.5","26","0.05","0.00"
"09:39:56","41.1","28.7","61","29.94","331","11.5","26.5","0.05","0.00"
"09:44:58","40.8","28.6","61.5","29.94","290","8.4","20","0.05","0.00"
"09:49:56","40.8","28.5","61.2","29.94","337","11.9","23","0.05","0.00"
"09:54:58","40.7","28.4","61.3","29.94","314","10","25.3","0.05","0.00"
"09:59:56","41.1","28.6","60.8","29.95","308","11.1","25.3","0.05","0.00"
"10:04:57","41.5","28.8","60.3","29.95","307","10.6","23","0.05","0.00"
"10:09:59","41.5","28.9","60.8","29.95","309","9.7","21.9","0.05","0.00"
"10:14:57","41.3","28.9","61.2","29.97","332","7.5","19.6","0.05","0.00"
"10:19:59","40.9","28.5","61.1","29.97","312","10.8","20","0.05","0.00"
"10:24:57","40.5","28.3","61.5","29.97","319","9","19.6","0.05","0.00"
"10:29:59","40.1","27.9","61.6","29.99","332","9.5","18.4","0.05","0.00"
"10:34:56","39.7","27.8","62.2","29.99","330","7.5","17.3","0.05","0.00"
"10:39:59","39.9","27.8","61.7","29.99","313","8.2","21","0.05","0.00"
"10:44:56","40","27.3","60.3","29.99","329","9.4","21","0.05","0.00"
"10:49:58","39.9","27.2","60.1","29.98","320","6.7","18.4","0.05","0.00"
"10:54:56","39.9","27.2","60.2","29.98","309","6.6","16.1","0.05","0.00"
"10:59:57","40","27.4","60.5","30.00","332","5.5","18.4","0.05","0.00"
"11:04:59","40.1","27.3","59.8","30.00","318","7.5","18.4","0.05","0.00"
"11:09:56","40.4","27.2","58.9","30.00","337","11","19.6","0.05","0.00"
"11:14:59","40.3","26.8","58.3","30.00","306","8.8","16.1","0.05","0.00"
"11:19:57","40.1","26.5","58.2","30.00","298","8.6","22","0.05","0.00"
"11:24:58","40.2","27","59.1","30.00","297","6.6","16","0.05","0.00"
"11:29:56","40.6","27.3","58.8","30.00","322","8","21","0.05","0.00"
"11:34:58","40.7","27.4","58.6","30.00","338","8","23","0.05","0.00"
"11:39:56","40.6","26.8","57.6","30.00","330","8.5","20","0.05","0.00"
"11:44:57","40.4","26.8","57.9","30.01","337","9.7","26.5","0.05","0.00"
"11:49:59","40.4","26.6","57.4","30.01","340","10.1","25.3","0.05","0.00"
"11:54:57","40.6","26.5","56.8","30.01","331","9.6","23","0.05","0.00"
"11:59:59","40.8","26.3","56","30.01","315","8.9","19.6","0.05","0.00"
"12:04:59","40.9","26.5","56.4","30.00","318","6.4","20","0.05","0.00"
"12:09:57","41","26.4","55.7","30.00","326","10.4","20","0.05","0.00"
"12:14:59","40.8","26.1","55.3","30.00","323","11.8","23","0.05","0.00"
"12:19:57","40.5","25.5","54.9","30.00","335","13.5","25.3","0.05","0.00"
"12:24:58","40.5","25.9","55.9","30.00","333","9.7","20.7","0.05","0.00"
"12:29:59","40.9","26","55.2","30.01","327","12","26.5","0.05","0.00"
"12:34:57","41.1","26","54.6","30.01","326","10","26.5","0.05","0.00"
"12:39:59","41.3","25.8","53.7","30.01","310","10.7","19.6","0.05","0.00"
"12:44:56","41.4","25.2","52.2","30.01","330","11.3","24.2","0.05","0.00"
"12:49:58","41.6","25.6","52.7","30.01","306","6.8","23","0.05","0.00"
"12:54:56","41.8","25.3","51.7","30.01","297","8.2","17.3","0.05","0.00"
"12:59:58","41.8","26.3","53.9","30.01","285","6.5","17.3","0.05","0.00"
"13:04:59","41.9","26","53.1","30.01","271","5.7","13","0.05","0.00"
"13:09:57","41.6","25.6","52.8","30.01","307","7","18.4","0.05","0.00"
"13:14:59","41.2","25.4","53.2","30.01","332","7.8","22","0.05","0.00"
"13:19:57","41.1","25.5","53.6","30.00","325","6.9","19","0.05","0.00"
"13:24:59","41.1","25.5","53.4","30.00","318","7.1","19.6","0.05","0.00"
"13:29:57","41","25.2","53.2","30.02","332","8.1","19.6","0.05","0.00"
"13:34:59","41","25.2","53.2","30.02","319","7.8","18.4","0.05","0.00"
"13:39:57","40.6","24.6","52.5","30.02","323","8.1","21","0.05","0.00"
"13:44:59","40.2","24.8","53.9","30.02","304","7","20.7","0.05","0.00"
"13:49:57","41","25.9","54.6","30.02","284","5.1","14","0.05","0.00"
"13:54:58","40.8","24.6","52.2","30.02","288","5.6","14","0.05","0.00"
"13:59:56","40.4","24.5","52.8","30.02","251","5.2","13.8","0.05","0.00"
"14:04:57","40.6","24.8","52.9","30.02","288","4.9","15","0.05","0.00"
"14:09:59","40.8","23.6","50","30.02","293","8","17.3","0.05","0.00"
"14:14:57","40.9","23.7","50","30.02","332","7.9","17.3","0.05","0.00"
"14:19:59","41.3","23.6","49.1","30.02","317","9.3","26.5","0.05","0.00"
"14:24:57","41.9","24.5","49.8","30.02","318","8.6","18.4","0.05","0.00"
"14:29:59","42.2","24.5","49.2","30.02","296","6.2","17.3","0.05","0.00"
"14:34:56","42.5","24.6","48.9","30.02","311","5.6","18","0.05","0.00"
"14:39:58","41.9","23.3","47.4","30.02","303","7","18.4","0.05","0.00"
"14:44:56","40.9","22.3","47.1","30.03","297","8.7","22","0.05","0.00"
"14:49:57","40","21.3","46.8","30.03","294","8.8","18.4","0.05","0.00"
"14:54:59","40.1","22.4","49","30.03","314","7.1","20","0.05","0.00"
"14:59:57","40.8","22.3","47.4","30.03","306","8.9","20","0.05","0.00"
"15:04:58","40.9","22.1","46.8","30.03","302","8.8","18.4","0.05","0.00"
"15:09:56","40.9","21.5","45.5","30.03","311","9","19","0.05","0.00"
"15:14:58","40.7","21.7","46.4","30.04","318","8.5","18.4","0.05","0.00"
"15:19:56","40.4","21.9","47.3","30.04","305","8.1","19.6","0.05","0.00"
"15:24:58","41","22.8","48","30.04","304","7.4","16.1","0.05","0.00"
"15:29:56","41.2","22.3","46.6","30.05","288","7.4","21","0.05","0.00"
"15:34:58","40.7","21.7","46.4","30.05","294","7.5","18.4","0.05","0.00"
"15:39:59","40.6","22.1","47.3","30.05","287","7.1","16","0.05","0.00"
"15:44:57","40.6","21.9","46.9","30.05","288","7","18.4","0.05","0.00"
"15:49:59","40.3","21.2","46.2","30.05","290","6.7","18.4","0.05","0.00"
"15:54:57","40","21.5","47.2","30.05","279","6.1","19","0.05","0.00"
"15:59:59","40","20.5","45.2","30.05","276","7.2","16.1","0.05","0.00"
"16:04:56","40","21.1","46.4","30.05","247","5.8","14","0.05","0.00"
"16:09:58","40.1","21.2","46.5","30.05","313","5.5","12","0.05","0.00"
"16:14:56","40","21.3","46.8","30.05","267","5.3","13","0.05","0.00"
"16:19:58","40","20.8","45.9","30.05","293","6.8","24","0.05","0.00"
"16:24:59","39.6","20.2","45.4","30.05","276","7.2","24.2","0.05","0.00"
"16:29:57","38.9","19.4","45.1","30.06","307","7.1","17.3","0.05","0.00"
"16:34:59","39","20.3","46.8","30.06","309","5.3","14","0.05","0.00"
"16:39:57","39.2","20.3","46.4","30.06","299","7.8","18","0.05","0.00"
"16:44:59","39.1","19.8","45.7","30.06","317","9.2","18.4","0.05","0.00"
"16:49:57","39","20.1","46.4","30.06","284","7.2","19","0.05","0.00"
"16:54:59","38.9","19.9","46","30.06","315","6.8","17.3","0.05","0.00"
"16:59:57","38.9","20.2","46.6","30.07","316","4.8","15","0.05","0.00"
"17:04:58","38.7","20.4","47.5","30.07","299","6","15","0.05","0.00"
"17:09:56","38.3","20.3","48","30.07","296","4.9","10.4","0.05","0.00"
"17:14:58","37.9","19.9","48","30.08","299","5.5","13","0.05","0.00"
"17:19:59","37.6","19.5","47.7","30.08","285","6.1","14","0.05","0.00"
"17:24:58","37.3","19.8","48.9","30.08","287","4.6","12","0.05","0.00"
"17:29:56","37","20","49.7","30.08","289","5","14","0.05","0.00"
"17:34:58","36.9","19.7","49.5","30.08","278","5.9","13.8","0.05","0.00"
"17:39:56","36.8","19.6","49.5","30.08","297","5.5","14","0.05","0.00"
"17:44:58","36.6","19.6","49.8","30.09","287","4.7","15","0.05","0.00"
"17:49:57","36.4","19.6","50.1","30.09","302","3.6","9.2","0.05","0.00"
"17:54:59","36.2","19.7","50.8","30.09","291","2.8","7","0.05","0.00"
"17:59:58","36","19.6","51","30.10","302","3.5","7","0.05","0.00"
"18:04:59","35.8","19.5","51.2","30.10","295","2.8","9.2","0.05","0.00"
"18:09:57","35.6","19.5","51.5","30.10","312","5.2","12","0.05","0.00"
"18:14:56","35.4","19.5","52","30.11","295","3","9.2","0.05","0.00"
"18:19:58","35.2","19.3","52","30.11","288","3.4","9.2","0.05","0.00"
"18:24:56","35.1","19.2","52","30.11","318","4.1","10.4","0.05","0.00"
"18:29:58","35","19.1","52","30.12","310","5","13","0.05","0.00"
"18:34:57","35","19.2","52.2","30.12","308","4.4","10.4","0.05","0.00"
"18:39:59","34.8","19.1","52.4","30.12","331","3.5","9.2","0.05","0.00"
"18:44:57","34.6","19","52.5","30.13","307","3.5","10.4","0.05","0.00"
"18:49:56","34.5","18.9","52.3","30.13","304","4.3","10.4","0.05","0.00"
"18:54:58","34.4","19","53","30.13","312","3.5","11.5","0.05","0.00"
"18:59:56","34.3","18.9","53.1","30.13","285","2.8","6","0.05","0.00"
"19:04:58","34.1","19.1","53.8","30.13","283","2.8","7","0.05","0.00"
"19:09:56","34","18.9","53.7","30.13","326","4.7","12","0.05","0.00"
"19:14:59","34","18.8","53.5","30.15","311","4.5","14","0.05","0.00"
"19:19:57","33.9","18.6","53","30.15","317","3.6","9","0.05","0.00"
"19:24:56","33.8","18.7","53.7","30.15","320","2.8","7","0.05","0.00"
"19:29:58","33.7","18.7","53.8","30.15","308","3.7","10","0.05","0.00"
"19:34:56","33.5","18.6","54","30.15","306","2.8","10.4","0.05","0.00"
"19:39:58","33.4","18.6","54.2","30.15","316","2.7","6","0.05","0.00"
"19:44:56","33.2","18.8","55","30.15","313","1.3","4","0.05","0.00"
"19:49:59","33","18.6","55","30.15","273","1.5","4","0.05","0.00"
"19:54:58","32.8","18.7","55.7","30.15","267","0.6","3.5","0.05","0.00"
"19:59:56","32.6","18.6","56","30.16","277","0.4","4","0.05","0.00"
"20:04:58","32.4","18.7","56.6","30.16","279","1.5","3.5","0.05","0.00"
"20:09:56","32.2","18.7","57","30.16","279","1.3","3.5","0.05","0.00"
"20:14:59","32.1","18.7","57.4","30.16","279","1.2","3.5","0.05","0.00"
"20:19:57","31.8","18.7","58","30.16","279","1","3.5","0.05","0.00"
"20:24:59","31.6","18.8","58.8","30.16","282","1.4","3.5","0.05","0.00"
"20:29:58","31.3","18.6","59","30.17","283","1.9","3.5","0.05","0.00"
"20:34:56","31.3","18.6","59","30.17","290","1.6","3.5","0.05","0.00"
"20:39:59","31.4","18.7","59","30.17","293","0.6","3.5","0.05","0.00"
"20:44:58","31.3","18.6","59","30.17","293","0.4","3.5","0.05","0.00"
"20:49:56","31.1","18.4","59","30.17","293","0","1.2","0.05","0.00"
"20:54:59","30.9","18.2","59","30.17","293","0.3","2.3","0.05","0.00"
"20:59:57","30.7","18.2","59.5","30.17","293","0.3","3.5","0.05","0.00"
"21:04:59","30.4","18.3","60.1","30.17","293","0.4","3.5","0.05","0.00"
"21:09:57","30","18.8","62.6","30.17","293","0.2","1.2","0.05","0.00"
"21:14:56","29.7","18.5","62.7","30.18","293","0.8","4","0.05","0.00"
"21:19:58","29.5","18.3","62.8","30.18","293","0.1","1.2","0.05","0.00"
"21:24:57","29.4","18.2","62.7","30.18","293","0.2","1.2","0.05","0.00"
"21:29:59","29.5","18.4","63","30.18","293","0.1","1.2","0.05","0.00"
"21:34:58","29.3","18.5","63.5","30.18","293","0.3","1.2","0.05","0.00"
"21:39:56","29","18.5","64.5","30.18","293","0.8","2.3","0.05","0.00"
"21:44:59","28.7","18.4","65","30.18","293","0.1","1.2","0.05","0.00"
"21:49:57","28.4","18.4","65.6","30.18","293","0","0","0.05","0.00"
"21:54:56","28.1","18.4","66.6","30.18","293","0","1.2","0.05","0.00"
"21:59:58","27.8","18.3","67","30.18","293","0","0","0.05","0.00"
"22:04:56","27.6","17.9","66.7","30.18","293","0","0","0.05","0.00"
"22:09:58","27.4","17.9","67.1","30.18","293","0","0","0.05","0.00"
"22:14:57","27.2","18","68","30.18","293","1.1","3","0.05","0.00"
"22:19:59","27.3","18.1","68","30.18","336","2.8","6","0.05","0.00"
"22:24:58","28.2","18.3","66","30.18","319","3","6","0.05","0.00"
"22:29:56","29","18.4","64.1","30.18","52","2.3","4.6","0.05","0.00"
"22:34:58","29.1","18.4","64","30.18","109","1","3.5","0.05","0.00"
"22:39:57","28.8","18.2","64.3","30.18","109","0.5","2.3","0.05","0.00"
"22:44:56","28.4","18.4","65.7","30.18","109","0.1","2.3","0.05","0.00"
"22:49:58","28","18.3","66.5","30.18","109","0","0","0.05","0.00"
"22:54:57","27.7","18.2","67.2","30.18","109","0.5","2.3","0.05","0.00"
"22:59:59","27.5","18.1","67.3","30.18","74","1","3.5","0.05","0.00"
"23:04:56","27.4","18.2","68","30.18","72","0.3","2.3","0.05","0.00"
"23:09:58","27.2","18.3","68.5","30.18","72","0.7","3","0.05","0.00"
"23:14:57","27","18.4","69.5","30.18","73","0.6","3.5","0.05","0.00"
"23:19:55","26.8","18.3","70","30.18","73","0","1.2","0.05","0.00"
"23:24:58","26.5","18.1","70.3","30.18","73","0.4","2.3","0.05","0.00"
"23:29:57","26.3","18.2","71.1","30.18","73","0.4","2.3","0.05","0.00"
"23:34:59","26.1","18.3","72","30.17","73","0","0","0.05","0.00"
"23:39:58","26","18.2","72.2","30.17","73","0","0","0.05","0.00"
"23:44:57","25.8","18","72.1","30.17","73","0","0","0.05","0.00"
"23:49:59","25.6","18","72.7","30.17","73","0","0","0.05","0.00"
"23:54:58","25.4","18","73.2","30.17","73","0","0","0.05","0.00"
"23:59:56","25.2","18.1","74","30.17","73","0","0","0.05","0.00"
